FREGAT DEB, 45829

Orbit data source: Space-Track

FREGAT DEB, 45829 is space debris in LEO originally from a launch on Mon, 18 Jul 2011 UTC launched from the Tyuratam Missile And Space Complex (TTMTR). Debris objects in space refer to the collection of defunct objects orbiting the Earth. Examples of debris include non-operational satellites, rocket bodies, and fragments generated from explosions, collisions, or faulty payload assembly.

Loading next visibility...
FREGAT DEB details
Identifier
45829, 2011-037BP
Orbit
LEO
Last TLE update1 day ago
Origin
Flag of CISVVKO VKS (CIS)
ManufacturerLavochkin
MissionSpacecraft
Bus & MotorUnknown
MassUnknown
Launch date (UTC)
2011-07-18 (13 years ago)
Launch vehicleUnknown
Launch site
Tyuratam Missile And Space Complex (TTMTR)
Object type
Payload
Rocket body
Debris
Shape & HBRUnknown
Radar Cross SectionSmall (<0.1 m²)

Expand to show TLE details & history

TLE from 1 day ago
0 FREGAT DEB
1 45829U 11037BP  24360.06209941  .00055611  00000-0  44979-2 0  9999
2 45829  51.4281 127.8534 1489566 262.1696  80.8110 12.32488132194851
Epoch: 2024-12-25T01:29Z
Definitive object data (Epoch: 2024-12-25T01:29:25.389Z)
Latitude-0.00005°
Longitude11.43633°
Altitude1,525.732 km
Speed7.11 km/s
True Right ascension08h 31m 24s
True Declination0° 00' 00"
Sunlit
Object was in full shadow at TLE epoch
Visualization TLE readout
Latitude-41.18834°
Longitude-129.00964°
Altitude480.133 km
Speed8.126 km/s
Apparent Right ascension23h 15m 01s
Apparent Declination-40° 24' 02"
Sunlit
Object is in daylight
Visualization observer readout
Local Sidereal Time11:20:43
Azimuth114.446° SE
Elevation-88.808°
Doppler factor1
Orbital elements
Apogee altitude2,718.415 km
Perigee altitude359.768 km
Semi-major axis7,917.228 km
Eccentricity0.1489566
Inclination51.4281°
RAAN127.8534°
Arg. of periapsis262.1696°
True anomaly97.91825°
Mean anomaly80.811°
Eccentric anomaly89.34503°
Mean motion3.08094 °/min
BSTAR0.0044979
Orbital period116.85 mins
Loading maneuver chart data...
Loading historical data...
Loading historical data...
Loading historical data...
Loading historical data...
Loading historical data...
Loading historical data...
Loading historical data...

FREGAT DEB Visibility forecast

Observer location: undefined°, undefined

Span
Click to sort rows by Start time (UTC) header in descending order
Start Az.
Max El. time (UTC)
Max El. Az.
Max El.
End time (UTC)
End Az.
29 mins2024-12-26 12:43:17.310Z255.328° W2024-12-26 12:57:17.310Z341.754° N42.4°2024-12-26 13:12:17.310Z57.853° ENE
28 mins2024-12-26 14:50:17.310Z289.06° WNW2024-12-26 15:04:17.310Z1.936° NNE39.095°2024-12-26 15:18:17.310Z77.191° E
27 mins2024-12-26 16:56:17.310Z304.355° NW2024-12-26 17:11:17.310Z28.766° NE43.616°2024-12-26 17:23:17.310Z112.125° ESE
24 mins2024-12-26 19:01:17.310Z303.472° NW2024-12-26 19:15:17.310Z231.455° WSW39.606°2024-12-26 19:25:17.310Z159.725° S
8 mins2024-12-26 21:11:17.310Z273.889° WNW2024-12-26 21:15:17.310Z255.092° W13.164°2024-12-26 21:19:17.310Z233.543° WSW
10 mins2024-12-27 08:07:17.310Z127.892° SE2024-12-27 08:11:17.310Z106.782° ESE14.66°2024-12-27 08:17:17.310Z80.168° E
24 mins2024-12-27 10:02:17.310Z199.097° SSW2024-12-27 10:12:17.310Z120.856° SE40.168°2024-12-27 10:26:17.310Z56.157° ENE
|